Regional Weather Roundup
Issued by NWS

Home | Current Version | Previous Version | Text Only | Print | Product List | Glossary Off
Versions: 1 2 3 4 5 6 7 8 9 10 11 12 13 14 15 16 17 18 19 20 21 22 23 24 25 26 27 28 29 30 31 32 33 34 35 36 37 38 39 40 41 42 43 44 45 46 47 48 49 50

000
ASUS45 KBOU 181707
RWRCO

WEATHER ROUNDUP FOR COLORADO
NATIONAL WEATHER SERVICE DENVER/BOULDER CO
1100 AM MDT SAT APR 18 2015

NOTE: "FAIR" INDICATES FEW OR NO CLOUDS BELOW 12000 FEET WITH NO
SIGNIFICANT WEATHER AND/OR OBSTRUCTIONS TO VISIBILITY.

COZ001>005-013-030-031-181800-
...NORTHWEST COLORADO...

CITY           SKY/WX    TMP DP  RH WIND       PRES   REMARKS
CRAIG          SNOW      33  32  96 SW8       29.98F VSB 1/2 WCI  26
HAYDEN         CLOUDY    32  28  86 CALM      29.98S VSB 1/2
MEEKER         SNOW      33  32  96 MISG      29.99S VSB 1/2
MOUNT WERNER   NOT AVBL
STEAMBOAT SPGS CLOUDY    31  30  94 S5        29.98S VSB 1/2 WCI  27
WALDEN         CLOUDY    30  27  86 N3        29.95F
$$

COZ006>008-011-181800-
...WEST CENTRAL VALLEYS...

CITY           SKY/WX    TMP DP  RH WIND       PRES   REMARKS
GRAND JUNCTION LGT RAIN  38  35  89 S3        30.02F
MONTROSE       LGT RAIN  37  34  89 S6        30.05F
EAGLE          LGT SNOW  34  30  86 CALM      30.02S VSB 1
RIFLE          HVY SNOW  33  32  96 E5        30.02S VSB 1/4 WCI  29
DELTA          CLOUDY    38  36  91 N6        30.05F
NUCLA          NOT AVBL
$$

COZ017>023-064>068-181800-
...SOUTHWEST COLORADO...

CITY           SKY/WX    TMP DP  RH WIND       PRES   REMARKS
DURANGO        PTSUNNY   36  32  85 SW17      30.02S
CORTEZ         PTSUNNY   40  36  86 CALM      30.06F
PAGOSA SPRINGS CLOUDY    40  15  36 SW8       30.00S
TELLURIDE      CLOUDY    30  22  73 CALM      30.06R
WOLF CREEK PAS CLOUDY    21   9  58 W7G17     30.03S WCI  13
$$

COZ009-010-012-014-032>034-037-058>063-181800-
...CENTRAL COLORADO...

CITY           SKY/WX    TMP DP  RH WIND       PRES   REMARKS
ASPEN          LGT SNOW  28  26  92 NW3       29.97F VSB 1
BUENA VISTA    CLOUDY    31  22  68 CALM      29.96F
COPPER MTN     CLOUDY    25  18  74 NW5       29.96S WCI  19
BERTHOUD PASS  LGT SNOW  18   9  68 N5        29.97S VSB 3/4 WCI  11
COTTONWOOD PAS CLOUDY    32  21  64 CALM      29.96S
GUNNISON       CLOUDY    27  21  80 E6        30.05F WCI  20
KREMMLING      CLOUDY    34  28  80 CALM      29.98S
LEADVILLE      CLOUDY    27  17  66 CALM      29.94S
MONARCH PASS   CLOUDY    16  12  86 MISG      30.06F
SALIDA         PTSUNNY   37  22  52 N5        30.03F
SUNLIGHT       SNOW     N/A N/A N/A CALM      30.02S VSB 1/2
WILKERSON PASS CLOUDY    23  19  86 NE3       29.97S
$$

COZ069>075-181800-
...SAN LUIS VALLEY/SANGRE DE CRISTO MOUNTAINS...

CITY           SKY/WX    TMP DP  RH WIND       PRES   REMARKS
ALAMOSA        MOSUNNY   39  17  41 CALM      29.97F
LA VETA PASS   MOSUNNY   32  19  59 SW8G20    29.96S WCI  25
SAGUACHE       MOSUNNY   36  23  60 NW16      29.98S
$$

COZ035-036-038>040-181800-
...NORTHERN COLORADO FRONT RANGE...

CITY           SKY/WX    TMP DP  RH WIND       PRES   REMARKS
DENVER INTL AP LGT RAIN  44  38  79 VRB3      29.94S
DMNS CITY PARK   N/A     46  35  65 N3G12     29.93F
AURORA         NOT AVBL
FRONT RANGE AP PTSUNNY   43  39  87 N3        29.95S
ERIE MUNI ARPT CLOUDY    44  36  74 CALM      29.94F
BOULDER MUN AP PTSUNNY   43  37  81 CALM      29.94F
CENTENNIAL     PTSUNNY   44  35  70 CALM      29.93F
BROOMFIELD     NOT AVBL
FORT COLLINS   PTSUNNY   46  36  66 SW5       29.95F
LONGMONT       CLOUDY    48  37  65 SE7       29.96S
$$

COZ041-046-047-076>085-087-088-181800-
...PIKES PEAK/PALMER DIVIDE AND SOUTHERN FOOTHILLS...

CITY           SKY/WX    TMP DP  RH WIND       PRES   REMARKS
COLO. SPRINGS  PTSUNNY   45  27  49 NW7       29.92F
A. F. ACADEMY  MOSUNNY   45  28  52 NE9       29.90F
ELLICOTT       MOSUNNY  N/A N/A N/A NE14      29.91F
FALCON         MOSUNNY   43  32  66 N12       29.93F
FORT CARSON    NOT AVBL
LIMON          LGT RAIN  37  35  92 SW14      29.93S
MONUMENT HILL  PTSUNNY   37  30  75 N7        29.93F
TRINIDAD       MOSUNNY   48  21  34 NW7       29.92F
$$

COZ042>045-048>051-090-091-181800-
...NORTHEAST COLORADO...

CITY           SKY/WX    TMP DP  RH WIND       PRES   REMARKS
GREELEY ARPT   CLOUDY    45  34  65 CALM      29.95F
AKRON          CLOUDY    44  41  89 N6        29.92F
BURLINGTON     CLOUDY    48  42  80 E5        29.90F
WRAY           CLOUDY    55  44  64 E12       29.91F
STERLING       CLOUDY    50  43  76 E6        29.91S
HOLYOKE        PTSUNNY   59  46  63 CALM      29.92S
FORT MORGAN    PTSUNNY   48  37  66 CALM      29.93F
$$

COZ086-089-092>099-181800-
...SOUTHEAST COLORADO...

CITY           SKY/WX    TMP DP  RH WIND       PRES   REMARKS
PUEBLO         MOSUNNY   50  35  56 CALM      29.91F
LA JUNTA       PTSUNNY   52  36  54 W6        29.91F
LAMAR          MOSUNNY   56  36  47 NW15G21   29.88F
SPRINGFIELD      N/A     51  34  52 NW12      29.91R
$$



USA.gov is the U.S. government's official web portal to all federal, state and local government web resources and services.